Location: Koslow
(50.3020°N, 18.5663°E)
Time: 07:21:06
(UTC+00:00)

STARLINK-1357 - Pass Details

Date: 02 October 2020
Orbit: 548 x 551 km, 53.0° (Epoch: 31 October)

Event Time Altitude Azimuth Distance (km) Brightness Sun altitude
Exits shadow 02:36:18 64° 302° (WNW) 616 3.6 -21.4°
Maximum altitude 02:36:45 71° 346° (NNW) 588 3.7 -21.4°
Drops below altitude 10° 02:40:54 10° 71° (ENE) 1,832 7.5 -20.8°
Sets 02:43:09 0° 74° (ENE) 2,728 8.8 -20.4°
